Los Angeles Downtown, CA

5:27 AM PDT on May 27, 2018 (GMT -0700)
Los Angeles Downtown

Weather History for KCQT - August, 2014

Change the Weather History Date:

Saturday, August 23, 2014

  Actual Average Record
Temperature  
Mean Temperature 76 °F 74 °F  
Max Temperature 85 °F 85 °F 100 °F (1968)
Min Temperature 66 °F 64 °F 54 °F (1905)
Degree Days  
Heating Degree Days 0 0  
Month to date heating degree days 0 0  
Since 1 June heating degree days 0 8  
Since 1 July heating degree days 0 0  
Cooling Degree Days 11 9  
Month to date cooling degree days 235 207  
Year to date cooling degree days 983 754  
Since 1 June cooling degree days 689 600  
Growing Degree Days 24 (Base 50)    
Moisture  
Dew Point 61 °F    
Average Humidity 62    
Maximum Humidity 81    
Minimum Humidity 43    
Precipitation  
Precipitation 0.00 in 0.00 in 0.00 in (2018)
Month to date precipitation 0.04 0.03  
Year to date precipitation 5.15 10.65  
Since 1 July precipitation 0.04  
Sea Level Pressure  
Sea Level Pressure 29.92 in    
Wind  
Wind Speed 3 mph (West)    
Max Wind Speed 10 mph    
Max Gust Speed 16 mph    
Visibility 10 miles    
Events      
T = Trace of Precipitation, MM = Missing Value Source: NWS Daily Summary

Daily Weather History Graph

Daily Weather History Graph

Search for Another Location

Airport or City:

Astronomy

Aug. 23, 2014 Rise Set
Actual Time 6:20 AM PDT 7:30 PM PDT
Civil Twilight 5:54 AM PDT 7:56 PM PDT
Nautical Twilight 5:23 AM PDT 8:26 PM PDT
Astronomical Twilight 4:51 AM PDT 8:58 PM PDT
Moon 4:42 AM PDT (8/23) 6:17 PM PDT (8/23)
Length of Visible Light 14h 01m
Length of Day
13h 09m
Waning Crescent, 3% of the Moon is Illuminated
Aug 23
Waning Crescent
Aug 25
New
Sep 2
First Quarter
Sep 8
Full
Sep 15
Last Quarter

Hourly Weather History & Observations

Time (PDT) Temp. Heat Index Dew Point Humidity Pressure Visibility Wind Dir Wind Speed Gust Speed Precip Events Conditions
12:02 AM 68.0 °F - 62.1 °F 81% 29.95 in 10.0 mi Calm Calm - N/A   Scattered Clouds
12:10 AM 68.0 °F - 62.1 °F 81% 29.95 in 10.0 mi WNW 3.5 mph - N/A   Mostly Cloudy
12:47 AM 68.0 °F - 62.1 °F 81% 29.94 in 10.0 mi West 3.5 mph - N/A   Overcast
1:21 AM 68.0 °F - 61.0 °F 78% 29.94 in 10.0 mi Calm Calm - N/A   Overcast
1:47 AM 68.0 °F - 61.0 °F 78% 29.94 in 10.0 mi West 3.5 mph - N/A   Overcast
2:47 AM 68.0 °F - 61.0 °F 78% 29.93 in 10.0 mi Calm Calm - N/A   Overcast
3:47 AM 68.0 °F - 61.0 °F 78% 29.93 in 10.0 mi Calm Calm - N/A   Overcast
4:35 AM 68.0 °F - 61.0 °F 78% 29.94 in 9.0 mi Calm Calm - N/A   Scattered Clouds
4:47 AM 66.9 °F - 60.1 °F 79% 29.94 in 9.0 mi Calm Calm - N/A   Partly Cloudy
5:47 AM 66.0 °F - 60.1 °F 81% 29.94 in 8.0 mi Calm Calm - N/A   Mostly Cloudy
6:47 AM 68.0 °F - 60.1 °F 76% 29.95 in 7.0 mi Calm Calm - N/A   Overcast
7:47 AM 69.1 °F - 60.1 °F 73% 29.96 in 7.0 mi Calm Calm - N/A   Overcast
8:47 AM 70.0 °F - 60.1 °F 71% 29.96 in 8.0 mi Calm Calm - N/A   Mostly Cloudy
9:01 AM 73.0 °F - 60.1 °F 64% 29.97 in 9.0 mi ESE 3.5 mph - N/A   Scattered Clouds
9:47 AM 75.9 °F - 61.0 °F 60% 29.96 in 9.0 mi Calm Calm - N/A   Clear
10:47 AM 78.1 °F - 57.0 °F 48% 29.95 in 10.0 mi Calm Calm - N/A   Clear
11:47 AM 82.0 °F 81.7 °F 57.0 °F 42% 29.93 in 10.0 mi Variable 4.6 mph - N/A   Clear
12:47 PM 82.9 °F 83.2 °F 60.1 °F 46% 29.92 in 10.0 mi West 5.8 mph - N/A   Clear
1:47 PM 80.1 °F 81.1 °F 61.0 °F 52% 29.91 in 10.0 mi Variable 4.6 mph - N/A   Clear
2:47 PM 79.0 °F - 60.1 °F 52% 29.89 in 10.0 mi Variable 3.5 mph - N/A   Clear
3:47 PM 79.0 °F - 60.1 °F 52% 29.88 in 10.0 mi Variable 4.6 mph - N/A   Clear
4:47 PM 77.0 °F - 60.1 °F 56% 29.87 in 10.0 mi West 8.1 mph - N/A   Clear
5:47 PM 75.0 °F - 61.0 °F 62% 29.86 in 10.0 mi Variable 5.8 mph - N/A   Clear
6:47 PM 73.0 °F - 61.0 °F 66% 29.86 in 10.0 mi Variable 6.9 mph - N/A   Clear
7:47 PM 70.0 °F - 61.0 °F 73% 29.86 in 10.0 mi Variable 4.6 mph - N/A   Clear
8:47 PM 68.0 °F - 61.0 °F 78% 29.88 in 10.0 mi Calm Calm - N/A   Clear
9:47 PM 68.0 °F - 61.0 °F 78% 29.88 in 10.0 mi West 4.6 mph - N/A   Clear
10:18 PM 66.9 °F - 61.0 °F 81% 29.89 in 10.0 mi West 4.6 mph - N/A   Mostly Cloudy
10:47 PM 66.9 °F - 61.0 °F 81% 29.88 in 10.0 mi WNW 3.5 mph - N/A   Mostly Cloudy
11:10 PM 66.9 °F - 61.0 °F 81% 29.89 in 10.0 mi Variable 3.5 mph - N/A   Scattered Clouds
11:47 PM 66.9 °F - 61.0 °F 81% 29.89 in 10.0 mi Variable 3.5 mph - N/A   Mostly Cloudy